Time,TemperatureF,DewpointF,PressureIn,WindDirection,WindDirectionDegrees,WindSpeedMPH,WindSpeedGustMPH,Humidity,HourlyPrecipIn,Conditions,Clouds,dailyrainin,SoftwareType,DateUTC
2013-06-01 00:04:00,52.4,38.9,30.17,NNE,17,0.0,0.0,60,0.00,,,0.00,Wunderground v.1.15,2013-06-01 07:04:00,
2013-06-01 00:10:00,52.0,39.0,30.17,NNE,17,0.0,0.0,61,0.00,,,0.00,Wunderground v.1.15,2013-06-01 07:10:00,
2013-06-01 00:16:00,51.4,39.2,30.16,NNE,17,0.0,0.0,63,0.00,,,0.00,Wunderground v.1.15,2013-06-01 07:16:00,
2013-06-01 00:22:00,50.9,39.1,30.16,NNE,17,0.0,0.0,64,0.00,,,0.00,Wunderground v.1.15,2013-06-01 07:22:00,
2013-06-01 00:28:00,50.6,38.9,30.16,NNE,17,0.0,0.0,64,0.00,,,0.00,Wunderground v.1.15,2013-06-01 07:28:00,
2013-06-01 00:34:00,50.6,39.3,30.16,NNE,17,0.0,0.0,65,0.00,,,0.00,Wunderground v.1.15,2013-06-01 07:34:00,
2013-06-01 00:40:00,50.4,39.1,30.16,NNE,17,0.0,0.0,65,0.00,,,0.00,Wunderground v.1.15,2013-06-01 07:40:00,
2013-06-01 00:46:00,50.0,39.1,30.16,NNE,17,0.0,0.0,66,0.00,,,0.00,Wunderground v.1.15,2013-06-01 07:46:00,
2013-06-01 00:52:00,49.7,38.8,30.16,NNE,17,0.0,0.0,66,0.00,,,0.00,Wunderground v.1.15,2013-06-01 07:52:00,
2013-06-01 00:58:00,49.5,39.0,30.16,NNE,17,0.0,0.0,67,0.00,,,0.00,Wunderground v.1.15,2013-06-01 07:58:00,
2013-06-01 01:04:00,49.4,39.3,30.16,NNE,17,0.0,0.0,68,0.00,,,0.00,Wunderground v.1.15,2013-06-01 08:04:00,
2013-06-01 01:10:00,49.4,39.3,30.16,NNE,17,0.0,0.0,68,0.00,,,0.00,Wunderground v.1.15,2013-06-01 08:10:00,
2013-06-01 01:16:00,49.4,39.3,30.16,NNE,17,0.0,0.0,68,0.00,,,0.00,Wunderground v.1.15,2013-06-01 08:16:00,
2013-06-01 01:22:00,49.5,39.4,30.17,NNE,17,0.0,0.0,68,0.00,,,0.00,Wunderground v.1.15,2013-06-01 08:22:00,
2013-06-01 01:28:00,49.5,39.4,30.16,NNE,17,0.0,2.0,68,0.00,,,0.00,Wunderground v.1.15,2013-06-01 08:28:00,
2013-06-01 01:34:00,49.5,39.4,30.16,NNE,17,0.0,1.0,68,0.00,,,0.00,Wunderground v.1.15,2013-06-01 08:34:00,
2013-06-01 01:40:00,49.2,39.5,30.16,NNE,17,0.0,0.0,69,0.00,,,0.00,Wunderground v.1.15,2013-06-01 08:40:00,
2013-06-01 01:46:00,48.6,38.9,30.16,NNE,17,0.0,0.0,69,0.00,,,0.00,Wunderground v.1.15,2013-06-01 08:46:00,
2013-06-01 01:52:00,48.0,38.7,30.16,NNE,17,0.0,0.0,70,0.00,,,0.00,Wunderground v.1.15,2013-06-01 08:52:00,
2013-06-01 01:58:00,47.2,38.3,30.16,NNE,17,0.0,2.0,71,0.00,,,0.00,Wunderground v.1.15,2013-06-01 08:58:00,
2013-06-01 02:04:00,46.8,38.6,30.15,NNE,17,1.0,1.0,73,0.00,,,0.00,Wunderground v.1.15,2013-06-01 09:04:00,
2013-06-01 02:10:00,46.7,38.1,30.15,NNE,17,0.0,1.0,72,0.00,,,0.00,Wunderground v.1.15,2013-06-01 09:10:00,
2013-06-01 02:16:00,46.1,37.9,30.15,NNE,17,1.0,1.0,73,0.00,,,0.00,Wunderground v.1.15,2013-06-01 09:16:00,
2013-06-01 02:22:00,45.8,38.0,30.15,NNE,17,0.0,0.0,74,0.00,,,0.00,Wunderground v.1.15,2013-06-01 09:22:00,
2013-06-01 02:28:00,45.7,38.2,30.15,NNE,17,0.0,2.0,75,0.00,,,0.00,Wunderground v.1.15,2013-06-01 09:28:00,
2013-06-01 02:34:00,45.4,37.9,30.15,NNE,17,1.0,1.0,75,0.00,,,0.00,Wunderground v.1.15,2013-06-01 09:34:00,
2013-06-01 02:40:00,45.2,38.1,30.15,NNE,17,0.0,0.0,76,0.00,,,0.00,Wunderground v.1.15,2013-06-01 09:40:00,
2013-06-01 02:46:00,45.2,38.1,30.15,NNE,17,0.0,0.0,76,0.00,,,0.00,Wunderground v.1.15,2013-06-01 09:46:00,
2013-06-01 02:52:00,45.0,37.9,30.15,NNE,17,0.0,1.0,76,0.00,,,0.00,Wunderground v.1.15,2013-06-01 09:52:00,
2013-06-01 02:58:00,44.7,37.6,30.15,NNE,17,0.0,1.0,76,0.00,,,0.00,Wunderground v.1.15,2013-06-01 09:58:00,
2013-06-01 03:04:00,44.4,37.3,30.15,NNE,17,0.0,0.0,76,0.00,,,0.00,Wunderground v.1.15,2013-06-01 10:04:00,
2013-06-01 03:10:00,44.0,37.3,30.15,NNE,17,0.0,0.0,77,0.00,,,0.00,Wunderground v.1.15,2013-06-01 10:10:00,
2013-06-01 03:16:00,43.6,37.2,30.15,NNE,17,0.0,0.0,78,0.00,,,0.00,Wunderground v.1.15,2013-06-01 10:16:00,
2013-06-01 03:22:00,43.2,36.8,30.15,NNE,17,0.0,0.0,78,0.00,,,0.00,Wunderground v.1.15,2013-06-01 10:22:00,
2013-06-01 03:28:00,42.9,36.8,30.15,NNE,17,0.0,0.0,79,0.00,,,0.00,Wunderground v.1.15,2013-06-01 10:28:00,
2013-06-01 03:34:00,42.5,36.8,30.15,NNE,17,0.0,0.0,80,0.00,,,0.00,Wunderground v.1.15,2013-06-01 10:34:00,
2013-06-01 03:40:00,42.3,36.6,30.15,NNE,17,0.0,0.0,80,0.00,,,0.00,Wunderground v.1.15,2013-06-01 10:40:00,
2013-06-01 03:46:00,42.0,36.6,30.15,NNE,17,0.0,1.0,81,0.00,,,0.00,Wunderground v.1.15,2013-06-01 10:46:00,
2013-06-01 03:52:00,41.8,36.4,30.15,NNE,17,0.0,0.0,81,0.00,,,0.00,Wunderground v.1.15,2013-06-01 10:52:00,
2013-06-01 03:58:00,41.8,36.7,30.15,NNE,17,0.0,1.0,82,0.00,,,0.00,Wunderground v.1.15,2013-06-01 10:58:00,
2013-06-01 04:04:00,41.7,36.6,30.15,NNE,17,0.0,0.0,82,0.00,,,0.00,Wunderground v.1.15,2013-06-01 11:04:00,
2013-06-01 04:10:00,41.6,36.5,30.15,NNE,17,0.0,0.0,82,0.00,,,0.00,Wunderground v.1.15,2013-06-01 11:10:00,
2013-06-01 04:16:00,41.5,36.4,30.15,NNE,17,0.0,0.0,82,0.00,,,0.00,Wunderground v.1.15,2013-06-01 11:16:00,
2013-06-01 04:22:00,41.5,36.4,30.15,NNE,17,0.0,2.0,82,0.00,,,0.00,Wunderground v.1.15,2013-06-01 11:22:00,
2013-06-01 04:28:00,41.3,36.2,30.15,NNE,17,0.0,2.0,82,0.00,,,0.00,Wunderground v.1.15,2013-06-01 11:28:00,
2013-06-01 04:34:00,41.3,36.5,30.14,NNE,17,0.0,0.0,83,0.00,,,0.00,Wunderground v.1.15,2013-06-01 11:34:00,
2013-06-01 04:40:00,41.1,36.3,30.14,NNE,17,0.0,0.0,83,0.00,,,0.00,Wunderground v.1.15,2013-06-01 11:40:00,
2013-06-01 04:46:00,41.0,36.2,30.14,NNE,17,0.0,1.0,83,0.00,,,0.00,Wunderground v.1.15,2013-06-01 11:46:00,
2013-06-01 04:52:00,41.0,36.5,30.14,NNE,17,1.0,2.0,84,0.00,,,0.00,Wunderground v.1.15,2013-06-01 11:52:00,
2013-06-01 04:58:00,40.9,36.4,30.13,NNE,17,1.0,2.0,84,0.00,,,0.00,Wunderground v.1.15,2013-06-01 11:58:00,
2013-06-01 05:04:00,40.9,36.4,30.13,NNE,17,1.0,2.0,84,0.00,,,0.00,Wunderground v.1.15,2013-06-01 12:04:00,
2013-06-01 05:10:00,40.8,36.3,30.13,NNE,17,2.0,2.0,84,0.00,,,0.00,Wunderground v.1.15,2013-06-01 12:10:00,
2013-06-01 05:16:00,40.7,36.2,30.13,NNE,17,2.0,2.0,84,0.00,,,0.00,Wunderground v.1.15,2013-06-01 12:16:00,
2013-06-01 05:22:00,40.7,36.2,30.13,NNE,17,1.0,2.0,84,0.00,,,0.00,Wunderground v.1.15,2013-06-01 12:22:00,
2013-06-01 05:28:00,40.7,35.9,30.13,NNE,17,1.0,2.0,83,0.00,,,0.00,Wunderground v.1.15,2013-06-01 12:28:00,
2013-06-01 05:34:00,40.6,35.8,30.13,NNE,17,1.0,2.0,83,0.00,,,0.00,Wunderground v.1.15,2013-06-01 12:34:00,
2013-06-01 05:40:00,40.6,35.8,30.13,NNE,17,1.0,3.0,83,0.00,,,0.00,Wunderground v.1.15,2013-06-01 12:40:00,
2013-06-01 05:46:00,40.6,35.8,30.14,NNE,17,1.0,3.0,83,0.00,,,0.00,Wunderground v.1.15,2013-06-01 12:46:00,
2013-06-01 05:52:00,40.7,35.9,30.13,NNE,17,2.0,2.0,83,0.00,,,0.00,Wunderground v.1.15,2013-06-01 12:52:00,
2013-06-01 05:58:00,40.8,36.0,30.13,NNE,17,1.0,2.0,83,0.00,,,0.00,Wunderground v.1.15,2013-06-01 12:58:00,
2013-06-01 06:04:00,40.6,35.8,30.13,NNE,17,1.0,1.0,83,0.00,,,0.00,Wunderground v.1.15,2013-06-01 13:04:00,
2013-06-01 06:10:00,40.7,36.2,30.13,NNE,17,2.0,2.0,84,0.00,,,0.00,Wunderground v.1.15,2013-06-01 13:10:00,
2013-06-01 06:16:00,41.0,36.2,30.13,NNE,17,1.0,2.0,83,0.00,,,0.00,Wunderground v.1.15,2013-06-01 13:16:00,
2013-06-01 06:22:00,41.3,36.5,30.13,NNE,17,1.0,1.0,83,0.00,,,0.00,Wunderground v.1.15,2013-06-01 13:22:00,
2013-06-01 06:28:00,41.6,36.8,30.13,NNE,17,1.0,1.0,83,0.00,,,0.00,Wunderground v.1.15,2013-06-01 13:28:00,
2013-06-01 06:34:00,41.9,37.1,30.13,NNE,17,0.0,1.0,83,0.00,,,0.00,Wunderground v.1.15,2013-06-01 13:34:00,
2013-06-01 06:40:00,42.4,37.6,30.13,NNE,17,0.0,1.0,83,0.00,,,0.00,Wunderground v.1.15,2013-06-01 13:40:00,
2013-06-01 06:46:00,42.9,37.5,30.13,NNE,17,1.0,2.0,81,0.00,,,0.00,Wunderground v.1.15,2013-06-01 13:46:00,
2013-06-01 06:52:00,43.5,38.1,30.13,NNE,17,1.0,1.0,81,0.00,,,0.00,Wunderground v.1.15,2013-06-01 13:52:00,
2013-06-01 06:58:00,44.2,38.4,30.13,NNE,17,1.0,1.0,80,0.00,,,0.00,Wunderground v.1.15,2013-06-01 13:58:00,
2013-06-01 07:04:00,45.0,38.9,30.13,NNE,17,0.0,1.0,79,0.00,,,0.00,Wunderground v.1.15,2013-06-01 14:04:00,
2013-06-01 07:10:00,45.7,38.9,30.12,NNE,17,1.0,3.0,77,0.00,,,0.00,Wunderground v.1.15,2013-06-01 14:10:00,
2013-06-01 07:16:00,46.4,38.9,30.12,NNE,17,1.0,3.0,75,0.00,,,0.00,Wunderground v.1.15,2013-06-01 14:16:00,
2013-06-01 07:22:00,47.3,39.1,30.12,NNE,17,0.0,1.0,73,0.00,,,0.00,Wunderground v.1.15,2013-06-01 14:22:00,
2013-06-01 07:28:00,48.1,39.5,30.12,NNE,17,0.0,1.0,72,0.00,,,0.00,Wunderground v.1.15,2013-06-01 14:28:00,
2013-06-01 07:34:00,48.7,39.7,30.12,NNE,17,0.0,1.0,71,0.00,,,0.00,Wunderground v.1.15,2013-06-01 14:34:00,
2013-06-01 07:40:00,49.5,40.1,30.12,NNE,17,0.0,1.0,70,0.00,,,0.00,Wunderground v.1.15,2013-06-01 14:40:00,
2013-06-01 07:46:00,50.3,40.5,30.12,NNE,17,0.0,1.0,69,0.00,,,0.00,Wunderground v.1.15,2013-06-01 14:46:00,
2013-06-01 07:52:00,51.2,41.0,30.12,NNE,17,0.0,0.0,68,0.00,,,0.00,Wunderground v.1.15,2013-06-01 14:52:00,
2013-06-01 07:58:00,52.7,41.7,30.12,NNE,17,0.0,1.0,66,0.00,,,0.00,Wunderground v.1.15,2013-06-01 14:58:00,
2013-06-01 08:04:00,53.6,41.7,30.12,NNE,17,0.0,0.0,64,0.00,,,0.00,Wunderground v.1.15,2013-06-01 15:04:00,
2013-06-01 08:10:00,54.5,41.7,30.12,NNE,17,0.0,0.0,62,0.00,,,0.00,Wunderground v.1.15,2013-06-01 15:10:00,
2013-06-01 08:16:00,55.1,41.9,30.11,NNE,17,0.0,0.0,61,0.00,,,0.00,Wunderground v.1.15,2013-06-01 15:16:00,
2013-06-01 08:22:00,55.6,40.6,30.11,NNE,17,1.0,1.0,57,0.00,,,0.00,Wunderground v.1.15,2013-06-01 15:22:00,
2013-06-01 08:28:00,55.9,40.0,30.11,NNE,17,1.0,2.0,55,0.00,,,0.00,Wunderground v.1.15,2013-06-01 15:28:00,
2013-06-01 08:34:00,56.4,40.9,30.11,NNE,17,1.0,1.0,56,0.00,,,0.00,Wunderground v.1.15,2013-06-01 15:34:00,
2013-06-01 08:40:00,56.8,39.8,30.11,NNE,17,1.0,1.0,53,0.00,,,0.00,Wunderground v.1.15,2013-06-01 15:40:00,
2013-06-01 08:46:00,57.3,40.3,30.11,NNE,17,0.0,1.0,53,0.00,,,0.00,Wunderground v.1.15,2013-06-01 15:46:00,
2013-06-01 08:52:00,58.7,41.1,30.11,NNE,17,0.0,1.0,52,0.00,,,0.00,Wunderground v.1.15,2013-06-01 15:52:00,
2013-06-01 08:58:00,60.0,41.3,30.10,NNE,17,0.0,2.0,50,0.00,,,0.00,Wunderground v.1.15,2013-06-01 15:58:00,
2013-06-01 09:04:00,60.9,41.6,30.10,NNE,17,0.0,1.0,49,0.00,,,0.00,Wunderground v.1.15,2013-06-01 16:04:00,
2013-06-01 09:10:00,61.3,42.0,30.10,NNE,17,1.0,1.0,49,0.00,,,0.00,Wunderground v.1.15,2013-06-01 16:10:00,
2013-06-01 09:16:00,60.5,41.8,30.10,NNE,17,1.0,3.0,50,0.00,,,0.00,Wunderground v.1.15,2013-06-01 16:16:00,
2013-06-01 09:22:00,60.3,41.0,30.09,NNE,17,1.0,1.0,49,0.00,,,0.00,Wunderground v.1.15,2013-06-01 16:22:00,
2013-06-01 09:28:00,60.7,41.4,30.09,NNE,17,0.0,1.0,49,0.00,,,0.00,Wunderground v.1.15,2013-06-01 16:28:00,
2013-06-01 09:34:00,62.2,41.7,30.09,NNE,17,0.0,1.0,47,0.00,,,0.00,Wunderground v.1.15,2013-06-01 16:34:00,
2013-06-01 09:40:00,63.2,40.9,30.09,NNE,17,1.0,1.0,44,0.00,,,0.00,Wunderground v.1.15,2013-06-01 16:40:00,
2013-06-01 09:46:00,64.3,40.7,30.08,NNE,17,1.0,4.0,42,0.00,,,0.00,Wunderground v.1.15,2013-06-01 16:46:00,
2013-06-01 09:52:00,65.0,40.1,30.08,NNE,17,2.0,2.0,40,0.00,,,0.00,Wunderground v.1.15,2013-06-01 16:52:00,
2013-06-01 09:58:00,65.3,41.0,30.08,NNE,17,2.0,5.0,41,0.00,,,0.00,Wunderground v.1.15,2013-06-01 16:58:00,
2013-06-01 10:04:00,65.4,41.1,30.08,NNE,17,1.0,2.0,41,0.00,,,0.00,Wunderground v.1.15,2013-06-01 17:04:00,
2013-06-01 10:10:00,65.1,40.8,30.08,NNE,17,1.0,1.0,41,0.00,,,0.00,Wunderground v.1.15,2013-06-01 17:10:00,
2013-06-01 10:16:00,64.9,41.2,30.07,NNE,17,2.0,2.0,42,0.00,,,0.00,Wunderground v.1.15,2013-06-01 17:16:00,
2013-06-01 10:22:00,65.6,39.3,30.07,NNE,17,2.0,2.0,38,0.00,,,0.00,Wunderground v.1.15,2013-06-01 17:22:00,
2013-06-01 10:28:00,66.5,38.7,30.07,NNE,17,1.0,3.0,36,0.00,,,0.00,Wunderground v.1.15,2013-06-01 17:28:00,
2013-06-01 10:34:00,66.9,36.1,30.07,NNE,17,1.0,2.0,32,0.00,,,0.00,Wunderground v.1.15,2013-06-01 17:34:00,
2013-06-01 10:40:00,67.2,36.3,30.06,NNE,17,1.0,2.0,32,0.00,,,0.00,Wunderground v.1.15,2013-06-01 17:40:00,
2013-06-01 10:46:00,66.6,35.0,30.06,NNE,17,2.0,3.0,31,0.00,,,0.00,Wunderground v.1.15,2013-06-01 17:46:00,
2013-06-01 10:52:00,66.3,35.5,30.06,NNE,17,2.0,2.0,32,0.00,,,0.00,Wunderground v.1.15,2013-06-01 17:52:00,
2013-06-01 10:58:00,65.9,36.0,30.06,NNE,17,2.0,2.0,33,0.00,,,0.00,Wunderground v.1.15,2013-06-01 17:58:00,
2013-06-01 11:04:00,66.0,39.0,30.06,NNE,17,2.0,3.0,37,0.00,,,0.00,Wunderground v.1.15,2013-06-01 18:04:00,
2013-06-01 11:10:00,66.6,36.6,30.05,NNE,17,1.0,1.0,33,0.00,,,0.00,Wunderground v.1.15,2013-06-01 18:10:00,
2013-06-01 11:16:00,68.2,38.0,30.05,NNE,17,1.0,1.0,33,0.00,,,0.00,Wunderground v.1.15,2013-06-01 18:16:00,
2013-06-01 11:22:00,69.2,37.3,30.05,NNE,17,0.0,1.0,31,0.00,,,0.00,Wunderground v.1.15,2013-06-01 18:22:00,
2013-06-01 11:28:00,70.0,38.0,30.04,NNE,17,1.0,3.0,31,0.00,,,0.00,Wunderground v.1.15,2013-06-01 18:28:00,
2013-06-01 11:34:00,70.3,39.0,30.04,NNE,17,1.0,4.0,32,0.00,,,0.00,Wunderground v.1.15,2013-06-01 18:34:00,
2013-06-01 11:40:00,70.1,37.2,30.03,NNE,17,1.0,3.0,30,0.00,,,0.00,Wunderground v.1.15,2013-06-01 18:40:00,
2013-06-01 11:46:00,70.9,37.9,30.03,NNE,17,2.0,3.0,30,0.00,,,0.00,Wunderground v.1.15,2013-06-01 18:46:00,
2013-06-01 11:52:00,71.0,38.8,30.03,NNE,17,2.0,2.0,31,0.00,,,0.00,Wunderground v.1.15,2013-06-01 18:52:00,
2013-06-01 11:58:00,71.2,39.8,30.03,NNE,17,1.0,2.0,32,0.00,,,0.00,Wunderground v.1.15,2013-06-01 18:58:00,
2013-06-01 12:04:00,70.5,39.2,30.02,NNE,17,2.0,4.0,32,0.00,,,0.00,Wunderground v.1.15,2013-06-01 19:04:00,
2013-06-01 12:10:00,69.9,41.7,30.02,NNE,17,2.0,4.0,36,0.00,,,0.00,Wunderground v.1.15,2013-06-01 19:10:00,
2013-06-01 12:16:00,70.6,40.9,30.02,NNE,17,2.0,4.0,34,0.00,,,0.00,Wunderground v.1.15,2013-06-01 19:16:00,
2013-06-01 12:22:00,70.7,40.9,30.01,NNE,17,2.0,4.0,34,0.00,,,0.00,Wunderground v.1.15,2013-06-01 19:22:00,
2013-06-01 12:28:00,70.7,36.9,30.01,East,81,3.0,7.0,29,0.00,,,0.00,Wunderground v.1.15,2013-06-01 19:28:00,
2013-06-01 12:34:00,71.5,35.7,30.00,ESE,108,3.0,8.0,27,0.00,,,0.00,Wunderground v.1.15,2013-06-01 19:34:00,
2013-06-01 12:40:00,70.4,36.6,30.00,East,87,5.0,5.0,29,0.00,,,0.00,Wunderground v.1.15,2013-06-01 19:40:00,
2013-06-01 12:46:00,70.2,35.5,30.00,East,87,4.0,6.0,28,0.00,,,0.00,Wunderground v.1.15,2013-06-01 19:46:00,
2013-06-01 12:52:00,71.0,37.1,29.99,East,84,2.0,3.0,29,0.00,,,0.00,Wunderground v.1.15,2013-06-01 19:52:00,
2013-06-01 12:58:00,71.0,37.1,29.99,South,189,3.0,6.0,29,0.00,,,0.00,Wunderground v.1.15,2013-06-01 19:58:00,
2013-06-01 13:04:00,71.3,34.6,29.99,ESE,115,4.0,4.0,26,0.00,,,0.00,Wunderground v.1.15,2013-06-01 20:04:00,
2013-06-01 13:10:00,71.3,34.6,29.99,ESE,107,5.0,5.0,26,0.00,,,0.00,Wunderground v.1.15,2013-06-01 20:10:00,
2013-06-01 13:16:00,71.2,37.3,29.99,East,80,6.0,10.0,29,0.00,,,0.00,Wunderground v.1.15,2013-06-01 20:16:00,
2013-06-01 13:22:00,71.2,37.3,29.98,East,80,7.0,7.0,29,0.00,,,0.00,Wunderground v.1.15,2013-06-01 20:22:00,
2013-06-01 13:28:00,71.9,36.1,29.98,East,80,4.0,7.0,27,0.00,,,0.00,Wunderground v.1.15,2013-06-01 20:28:00,
2013-06-01 13:34:00,73.3,36.3,29.98,ENE,71,2.0,5.0,26,0.00,,,0.00,Wunderground v.1.15,2013-06-01 20:34:00,
2013-06-01 13:40:00,73.1,38.9,29.98,ENE,78,3.0,7.0,29,0.00,,,0.00,Wunderground v.1.15,2013-06-01 20:40:00,
2013-06-01 13:46:00,72.0,37.1,29.97,East,99,7.0,10.0,28,0.00,,,0.00,Wunderground v.1.15,2013-06-01 20:46:00,
2013-06-01 13:52:00,72.1,36.3,29.97,East,99,5.0,6.0,27,0.00,,,0.00,Wunderground v.1.15,2013-06-01 20:52:00,
2013-06-01 13:58:00,73.1,38.0,29.97,East,92,3.0,7.0,28,0.00,,,0.00,Wunderground v.1.15,2013-06-01 20:58:00,
2013-06-01 14:04:00,72.6,36.7,29.97,East,86,5.0,13.0,27,0.00,,,0.00,Wunderground v.1.15,2013-06-01 21:04:00,
2013-06-01 14:10:00,72.3,37.4,29.96,ESE,111,7.0,7.0,28,0.00,,,0.00,Wunderground v.1.15,2013-06-01 21:10:00,
2013-06-01 14:16:00,72.6,38.5,29.96,ESE,111,5.0,7.0,29,0.00,,,0.00,Wunderground v.1.15,2013-06-01 21:16:00,
2013-06-01 14:22:00,74.2,39.0,29.96,ESE,105,2.0,5.0,28,0.00,,,0.00,Wunderground v.1.15,2013-06-01 21:22:00,
2013-06-01 14:28:00,75.4,38.1,29.95,NNE,25,3.0,5.0,26,0.00,,,0.00,Wunderground v.1.15,2013-06-01 21:28:00,
2013-06-01 14:34:00,75.6,38.3,29.95,ENE,66,4.0,8.0,26,0.00,,,0.00,Wunderground v.1.15,2013-06-01 21:34:00,
2013-06-01 14:40:00,76.8,38.3,29.94,ENE,66,3.0,3.0,25,0.00,,,0.00,Wunderground v.1.15,2013-06-01 21:40:00,
2013-06-01 14:46:00,76.6,38.1,29.94,NNW,329,3.0,10.0,25,0.00,,,0.00,Wunderground v.1.15,2013-06-01 21:46:00,
2013-06-01 14:52:00,76.0,39.6,29.94,WNW,294,4.0,6.0,27,0.00,,,0.00,Wunderground v.1.15,2013-06-01 21:52:00,
2013-06-01 14:58:00,76.1,39.7,29.94,WNW,295,4.0,6.0,27,0.00,,,0.00,Wunderground v.1.15,2013-06-01 21:58:00,
2013-06-01 15:04:00,76.2,38.8,29.93,WNW,288,5.0,6.0,26,0.00,,,0.00,Wunderground v.1.15,2013-06-01 22:04:00,
2013-06-01 15:10:00,76.1,38.7,29.93,NW,308,6.0,6.0,26,0.00,,,0.00,Wunderground v.1.15,2013-06-01 22:10:00,
2013-06-01 15:16:00,76.6,41.0,29.93,NW,307,4.0,12.0,28,0.00,,,0.00,Wunderground v.1.15,2013-06-01 22:16:00,
2013-06-01 15:22:00,75.7,40.3,29.92,NW,315,7.0,7.0,28,0.00,,,0.00,Wunderground v.1.15,2013-06-01 22:22:00,
2013-06-01 15:28:00,75.1,40.7,29.93,NW,320,9.0,9.0,29,0.00,,,0.00,Wunderground v.1.15,2013-06-01 22:28:00,
2013-06-01 15:34:00,75.4,41.8,29.92,WNW,300,7.0,8.0,30,0.00,,,0.00,Wunderground v.1.15,2013-06-01 22:34:00,
2013-06-01 15:40:00,75.3,40.8,29.92,NW,311,6.0,8.0,29,0.00,,,0.00,Wunderground v.1.15,2013-06-01 22:40:00,
2013-06-01 15:46:00,75.2,41.6,29.92,NW,311,6.0,8.0,30,0.00,,,0.00,Wunderground v.1.15,2013-06-01 22:46:00,
2013-06-01 15:52:00,75.6,42.0,29.92,NW,320,7.0,7.0,30,0.00,,,0.00,Wunderground v.1.15,2013-06-01 22:52:00,
2013-06-01 15:58:00,75.6,42.8,29.91,WNW,288,7.0,11.0,31,0.00,,,0.00,Wunderground v.1.15,2013-06-01 22:58:00,
2013-06-01 16:04:00,75.6,42.0,29.91,NNW,343,7.0,8.0,30,0.00,,,0.00,Wunderground v.1.15,2013-06-01 23:04:00,
2013-06-01 16:10:00,75.2,42.5,29.92,NW,320,8.0,8.0,31,0.00,,,0.00,Wunderground v.1.15,2013-06-01 23:10:00,
2013-06-01 16:16:00,75.2,41.6,29.91,West,279,8.0,10.0,30,0.00,,,0.00,Wunderground v.1.15,2013-06-01 23:16:00,
2013-06-01 16:22:00,75.3,42.6,29.91,WNW,293,7.0,11.0,31,0.00,,,0.00,Wunderground v.1.15,2013-06-01 23:22:00,
2013-06-01 16:28:00,75.0,42.3,29.91,NW,326,8.0,11.0,31,0.00,,,0.00,Wunderground v.1.15,2013-06-01 23:28:00,
2013-06-01 16:34:00,75.4,41.8,29.91,NNE,19,8.0,8.0,30,0.00,,,0.00,Wunderground v.1.15,2013-06-01 23:34:00,
2013-06-01 16:40:00,75.5,43.6,29.91,North,350,5.0,5.0,32,0.00,,,0.00,Wunderground v.1.15,2013-06-01 23:40:00,
2013-06-01 16:46:00,75.9,43.1,29.91,WNW,292,5.0,5.0,31,0.00,,,0.00,Wunderground v.1.15,2013-06-01 23:46:00,
2013-06-01 16:52:00,76.7,43.8,29.90,NW,315,5.0,7.0,31,0.00,,,0.00,Wunderground v.1.15,2013-06-01 23:52:00,
2013-06-01 16:58:00,76.3,41.7,29.90,West,280,6.0,10.0,29,0.00,,,0.00,Wunderground v.1.15,2013-06-01 23:58:00,
2013-06-01 17:04:00,75.4,42.7,29.90,NW,315,8.0,8.0,31,0.00,,,0.00,Wunderground v.1.15,2013-06-02 00:04:00,
2013-06-01 17:10:00,75.1,42.4,29.90,WNW,300,9.0,9.0,31,0.00,,,0.00,Wunderground v.1.15,2013-06-02 00:10:00,
2013-06-01 17:16:00,75.2,43.3,29.90,NW,325,8.0,9.0,32,0.00,,,0.00,Wunderground v.1.15,2013-06-02 00:16:00,
2013-06-01 17:22:00,75.2,42.5,29.90,WNW,298,7.0,7.0,31,0.00,,,0.00,Wunderground v.1.15,2013-06-02 00:22:00,
2013-06-01 17:28:00,75.0,43.1,29.90,NW,325,8.0,9.0,32,0.00,,,0.00,Wunderground v.1.15,2013-06-02 00:28:00,
2013-06-01 17:34:00,74.5,43.5,29.90,WNW,301,9.0,10.0,33,0.00,,,0.00,Wunderground v.1.15,2013-06-02 00:34:00,
2013-06-01 17:40:00,74.5,44.3,29.90,NW,315,8.0,10.0,34,0.00,,,0.00,Wunderground v.1.15,2013-06-02 00:40:00,
2013-06-01 17:46:00,74.6,43.6,29.89,WNW,301,7.0,8.0,33,0.00,,,0.00,Wunderground v.1.15,2013-06-02 00:46:00,
2013-06-01 17:52:00,74.5,43.5,29.90,West,276,8.0,12.0,33,0.00,,,0.00,Wunderground v.1.15,2013-06-02 00:52:00,
2013-06-01 17:58:00,73.6,44.2,29.90,NNW,336,9.0,12.0,35,0.00,,,0.00,Wunderground v.1.15,2013-06-02 00:58:00,
2013-06-01 18:04:00,73.3,44.7,29.90,WNW,294,8.0,10.0,36,0.00,,,0.00,Wunderground v.1.15,2013-06-02 01:04:00,
2013-06-01 18:10:00,73.1,43.8,29.89,NW,321,8.0,15.0,35,0.00,,,0.00,Wunderground v.1.15,2013-06-02 01:10:00,
2013-06-01 18:16:00,72.9,44.4,29.89,NW,314,8.0,12.0,36,0.00,,,0.00,Wunderground v.1.15,2013-06-02 01:16:00,
2013-06-01 18:22:00,72.3,43.8,29.89,NW,319,10.0,14.0,36,0.00,,,0.00,Wunderground v.1.15,2013-06-02 01:22:00,
2013-06-01 18:28:00,72.0,44.3,29.89,NNW,338,10.0,14.0,37,0.00,,,0.00,Wunderground v.1.15,2013-06-02 01:28:00,
2013-06-01 18:34:00,72.0,44.3,29.90,WNW,302,8.0,11.0,37,0.00,,,0.00,Wunderground v.1.15,2013-06-02 01:34:00,
2013-06-01 18:40:00,71.7,45.4,29.90,NW,309,8.0,11.0,39,0.00,,,0.00,Wunderground v.1.15,2013-06-02 01:40:00,
2013-06-01 18:46:00,71.1,44.9,29.89,NW,325,9.0,13.0,39,0.00,,,0.00,Wunderground v.1.15,2013-06-02 01:46:00,
2013-06-01 18:52:00,70.7,45.2,29.89,NNW,333,9.0,9.0,40,0.00,,,0.00,Wunderground v.1.15,2013-06-02 01:52:00,
2013-06-01 18:58:00,70.4,44.9,29.90,NW,315,9.0,9.0,40,0.00,,,0.00,Wunderground v.1.15,2013-06-02 01:58:00,
2013-06-01 19:04:00,70.3,44.8,29.89,NW,315,7.0,9.0,40,0.00,,,0.00,Wunderground v.1.15,2013-06-02 02:04:00,
2013-06-01 19:10:00,70.2,44.7,29.89,NW,309,7.0,7.0,40,0.00,,,0.00,Wunderground v.1.15,2013-06-02 02:10:00,
2013-06-01 19:16:00,70.0,44.6,29.90,NW,313,8.0,8.0,40,0.00,,,0.00,Wunderground v.1.15,2013-06-02 02:16:00,
2013-06-01 19:22:00,69.8,44.4,29.90,WNW,297,8.0,10.0,40,0.00,,,0.00,Wunderground v.1.15,2013-06-02 02:22:00,
2013-06-01 19:28:00,69.3,44.6,29.90,NW,304,8.0,16.0,41,0.00,,,0.00,Wunderground v.1.15,2013-06-02 02:28:00,
2013-06-01 19:34:00,68.8,44.8,29.90,NW,323,8.0,10.0,42,0.00,,,0.00,Wunderground v.1.15,2013-06-02 02:34:00,
2013-06-01 19:40:00,68.6,45.2,29.90,NNW,331,6.0,8.0,43,0.00,,,0.00,Wunderground v.1.15,2013-06-02 02:40:00,
2013-06-01 19:46:00,68.2,44.8,29.90,NNW,329,6.0,11.0,43,0.00,,,0.00,Wunderground v.1.15,2013-06-02 02:46:00,
2013-06-01 19:52:00,67.7,45.0,29.90,NW,305,8.0,8.0,44,0.00,,,0.00,Wunderground v.1.15,2013-06-02 02:52:00,
2013-06-01 19:58:00,67.4,44.1,29.90,NNW,331,6.0,8.0,43,0.00,,,0.00,Wunderground v.1.15,2013-06-02 02:58:00,
2013-06-01 20:04:00,67.0,44.4,29.90,North,5,6.0,6.0,44,0.00,,,0.00,Wunderground v.1.15,2013-06-02 03:04:00,
2013-06-01 20:10:00,66.5,44.5,29.90,NW,317,5.0,7.0,45,0.00,,,0.00,Wunderground v.1.15,2013-06-02 03:10:00,
2013-06-01 20:16:00,65.8,44.4,29.90,NNW,331,5.0,6.0,46,0.00,,,0.00,Wunderground v.1.15,2013-06-02 03:16:00,
2013-06-01 20:22:00,65.4,44.6,29.90,NNW,331,5.0,5.0,47,0.00,,,0.00,Wunderground v.1.15,2013-06-02 03:22:00,
2013-06-01 20:28:00,65.0,44.8,29.90,NW,319,5.0,9.0,48,0.00,,,0.00,Wunderground v.1.15,2013-06-02 03:28:00,
2013-06-01 20:34:00,64.5,45.4,29.90,NNW,333,5.0,5.0,50,0.00,,,0.00,Wunderground v.1.15,2013-06-02 03:34:00,
2013-06-01 20:40:00,63.9,45.4,29.90,NNW,333,4.0,6.0,51,0.00,,,0.00,Wunderground v.1.15,2013-06-02 03:40:00,
2013-06-01 20:46:00,63.4,46.0,29.90,NNW,344,4.0,8.0,53,0.00,,,0.00,Wunderground v.1.15,2013-06-02 03:46:00,
2013-06-01 20:52:00,63.0,46.1,29.90,WNW,303,5.0,5.0,54,0.00,,,0.00,Wunderground v.1.15,2013-06-02 03:52:00,
2013-06-01 20:58:00,62.5,46.1,29.90,NW,315,6.0,8.0,55,0.00,,,0.00,Wunderground v.1.15,2013-06-02 03:58:00,
2013-06-01 21:02:00,62.3,46.4,29.90,NW,323,6.0,6.0,56,0.00,,,0.00,Wunderground v.1.15,2013-06-02 04:02:00,
2013-06-01 21:04:00,62.3,46.4,29.90,WNW,303,6.0,7.0,56,0.00,,,0.00,Wunderground v.1.15,2013-06-02 04:04:00,
2013-06-01 21:08:00,62.2,46.3,29.90,NW,317,7.0,7.0,56,0.00,,,0.00,Wunderground v.1.15,2013-06-02 04:08:00,
2013-06-01 21:10:00,62.1,46.2,29.90,NW,313,6.0,7.0,56,0.00,,,0.00,Wunderground v.1.15,2013-06-02 04:10:00,
2013-06-01 21:14:00,61.8,45.9,29.91,NW,308,5.0,6.0,56,0.00,,,0.00,Wunderground v.1.15,2013-06-02 04:14:00,
2013-06-01 21:20:00,61.4,46.5,29.91,NW,312,5.0,6.0,58,0.00,,,0.00,Wunderground v.1.15,2013-06-02 04:20:00,
2013-06-01 21:26:00,61.2,46.3,29.91,WNW,294,6.0,8.0,58,0.00,,,0.00,Wunderground v.1.15,2013-06-02 04:26:00,
2013-06-01 21:32:00,61.0,46.6,29.91,North,350,7.0,7.0,59,0.00,,,0.00,Wunderground v.1.15,2013-06-02 04:32:00,
2013-06-01 21:38:00,60.7,46.7,29.92,NNW,340,6.0,7.0,60,0.00,,,0.00,Wunderground v.1.15,2013-06-02 04:38:00,
2013-06-01 21:44:00,60.3,46.8,29.92,NNW,333,5.0,7.0,61,0.00,,,0.00,Wunderground v.1.15,2013-06-02 04:44:00,
2013-06-01 21:50:00,60.0,46.9,29.92,NNW,331,5.0,7.0,62,0.00,,,0.00,Wunderground v.1.15,2013-06-02 04:50:00,
2013-06-01 21:56:00,59.6,46.6,29.92,NNW,331,3.0,4.0,62,0.00,,,0.00,Wunderground v.1.15,2013-06-02 04:56:00,
2013-06-01 22:02:00,59.3,46.7,29.92,North,5,2.0,2.0,63,0.00,,,0.00,Wunderground v.1.15,2013-06-02 05:02:00,
2013-06-01 22:08:00,59.1,46.5,29.92,NNW,327,3.0,4.0,63,0.00,,,0.00,Wunderground v.1.15,2013-06-02 05:08:00,
2013-06-01 22:14:00,59.1,46.9,29.92,NNW,338,4.0,4.0,64,0.00,,,0.00,Wunderground v.1.15,2013-06-02 05:14:00,
2013-06-01 22:20:00,58.9,46.7,29.92,NNW,342,3.0,4.0,64,0.00,,,0.00,Wunderground v.1.15,2013-06-02 05:20:00,
2013-06-01 22:26:00,58.7,46.5,29.92,NNW,342,2.0,3.0,64,0.00,,,0.00,Wunderground v.1.15,2013-06-02 05:26:00,
2013-06-01 22:32:00,58.4,46.7,29.92,NNW,342,1.0,1.0,65,0.00,,,0.00,Wunderground v.1.15,2013-06-02 05:32:00,
2013-06-01 22:38:00,58.1,46.4,29.92,NNW,342,0.0,1.0,65,0.00,,,0.00,Wunderground v.1.15,2013-06-02 05:38:00,
2013-06-01 22:44:00,57.7,46.0,29.92,NNW,346,0.0,1.0,65,0.00,,,0.00,Wunderground v.1.15,2013-06-02 05:44:00,
2013-06-01 22:50:00,57.5,46.2,29.92,NNW,346,1.0,1.0,66,0.00,,,0.00,Wunderground v.1.15,2013-06-02 05:50:00,
2013-06-01 22:56:00,57.3,46.0,29.92,NNW,346,1.0,2.0,66,0.00,,,0.00,Wunderground v.1.15,2013-06-02 05:56:00,
2013-06-01 23:02:00,57.1,46.2,29.92,NNW,346,0.0,0.0,67,0.00,,,0.00,Wunderground v.1.15,2013-06-02 06:02:00,
2013-06-01 23:08:00,56.8,46.0,29.92,NNW,346,0.0,0.0,67,0.00,,,0.00,Wunderground v.1.15,2013-06-02 06:08:00,
2013-06-01 23:14:00,56.4,46.0,29.92,NNW,346,0.0,0.0,68,0.00,,,0.00,Wunderground v.1.15,2013-06-02 06:14:00,
2013-06-01 23:20:00,56.2,45.8,29.92,NNW,346,0.0,0.0,68,0.00,,,0.00,Wunderground v.1.15,2013-06-02 06:20:00,
2013-06-01 23:26:00,56.1,46.1,29.92,NNW,346,0.0,0.0,69,0.00,,,0.00,Wunderground v.1.15,2013-06-02 06:26:00,
2013-06-01 23:32:00,55.8,46.2,29.92,NNW,346,1.0,1.0,70,0.00,,,0.00,Wunderground v.1.15,2013-06-02 06:32:00,
2013-06-01 23:38:00,55.6,46.0,29.92,NNW,346,1.0,1.0,70,0.00,,,0.00,Wunderground v.1.15,2013-06-02 06:38:00,
2013-06-01 23:44:00,55.4,46.2,29.92,NNW,346,0.0,0.0,71,0.00,,,0.00,Wunderground v.1.15,2013-06-02 06:44:00,
2013-06-01 23:50:00,55.2,46.0,29.92,NNW,346,0.0,0.0,71,0.00,,,0.00,Wunderground v.1.15,2013-06-02 06:50:00,
2013-06-01 23:56:00,55.0,46.1,29.92,NNW,346,0.0,0.0,72,0.00,,,0.00,Wunderground v.1.15,2013-06-02 06:56:00,